TimePDT,TemperatureF,Dew PointF,Humidity,Sea Level PressureIn,VisibilityMPH,Wind Direction,Wind SpeedMPH,Gust SpeedMPH,PrecipitationIn,Events,Conditions,WindDirDegrees,DateUTC
12:53 AM,55.9,45.0,67,29.97,10.0,East,4.6,-,N/A,,Clear,100,2013-05-09 07:53:00
1:53 AM,55.9,46.0,69,29.98,10.0,East,6.9,-,N/A,,Clear,90,2013-05-09 08:53:00
2:53 AM,55.0,46.9,74,30.00,10.0,SE,5.8,-,N/A,,Clear,130,2013-05-09 09:53:00
3:53 AM,52.0,46.9,83,30.01,10.0,ESE,6.9,-,N/A,,Clear,110,2013-05-09 10:53:00
4:53 AM,51.8,46.4,82,30.05,10.0,East,5.8,-,N/A,,Clear,100,2013-05-09 11:53:00
5:53 AM,51.1,46.0,83,30.04,10.0,East,5.8,-,N/A,,Clear,100,2013-05-09 12:53:00
6:53 AM,57.9,48.9,72,30.06,10.0,East,3.5,-,N/A,,Clear,100,2013-05-09 13:53:00
7:53 AM,62.1,48.9,62,30.06,10.0,Calm,Calm,-,N/A,,Clear,0,2013-05-09 14:53:00
8:53 AM,66.0,48.9,54,30.07,10.0,Calm,Calm,-,N/A,,Clear,0,2013-05-09 15:53:00
9:53 AM,69.8,46.4,43,30.09,10.0,Calm,Calm,-,N/A,,Clear,0,2013-05-09 16:53:00
10:53 AM,75.0,48.0,38,30.05,10.0,West,10.4,-,N/A,,Clear,280,2013-05-09 17:53:00
11:53 AM,78.1,50.0,37,30.05,10.0,Variable,4.6,-,N/A,,Clear,0,2013-05-09 18:53:00
12:53 PM,82.0,50.0,33,30.03,10.0,WNW,8.1,-,N/A,,Clear,300,2013-05-09 19:53:00
1:53 PM,84.0,48.9,29,30.02,10.0,WNW,10.4,-,N/A,,Clear,300,2013-05-09 20:53:00
2:53 PM,86.0,48.0,27,29.99,10.0,WNW,6.9,-,N/A,,Clear,300,2013-05-09 21:53:00
3:53 PM,87.1,46.0,24,29.98,10.0,NW,6.9,-,N/A,,Clear,320,2013-05-09 22:53:00
4:53 PM,88.0,39.9,18,29.97,10.0,North,-9999.0,-,N/A,,Clear,0,2013-05-09 23:53:00
5:53 PM,87.1,43.0,21,29.96,10.0,NW,4.6,-,N/A,,Clear,320,2013-05-10 00:53:00
6:53 PM,82.9,46.9,28,29.96,10.0,NW,5.8,-,N/A,,Clear,310,2013-05-10 01:53:00
7:53 PM,79.0,48.0,34,29.97,10.0,NW,3.5,-,N/A,,Clear,310,2013-05-10 02:53:00
8:53 PM,73.0,44.1,35,29.99,10.0,East,4.6,-,N/A,,Clear,90,2013-05-10 03:53:00
9:53 PM,64.9,46.9,52,30.01,10.0,ESE,8.1,-,N/A,,Clear,110,2013-05-10 04:53:00
10:53 PM,64.9,46.9,52,30.01,10.0,SE,11.5,-,N/A,,Clear,140,2013-05-10 05:53:00
11:53 PM,62.1,46.0,56,30.02,10.0,SE,11.5,-,N/A,,Clear,130,2013-05-10 06:53:00